STARLETTE

Last updated on Sat Sep 05 2026 00:03:39 GMT+0000 (Coordinated Universal Time)

1 07646U 75010A 26247.61260726 -.00000130 00000+0 94253-5 0 9999 2 07646 49.8241 151.0899 0205685 325.4339 33.3324 13.82351579605521
UTC large
Height (km)
Speed (km/s)
/
Latitude / Longitude
Inclination (degrees)
Orbital Period (minutes)
Azimuth
Elevation
Range (km)
Doppler Factor

Next 0 passes for location: London (51.5072 / 0.1276)

No passes found over London.
STARLETTE